This is the latest recevied weather packets stored in our database for station/object EA3ANS-1. If no packets are shown the sender has not sent any weather packets the latest 10 day(s).
| Time | Temp. | Humidity | Pressure | Rain* | Wind** | Luminosity | Snow |
|---|---|---|---|---|---|---|---|
| 1787959106 | 20.56° C | - | 1018.2 hPa | 0 mm | 0 m/s | - | - |
| 1787958501 | 20.56° C | - | 1018.1 hPa | 0 mm | 0.89 m/s, 336° | - | - |
| 1787957903 | 20.56° C | - | 1018 hPa | 0 mm | 0.89 m/s, 103° | - | - |
| 1787957306 | 21.67° C | - | 1017.8 hPa | 0 mm | 1.79 m/s, 115° | - | - |
| 1787956702 | 22.22° C | - | 1017.7 hPa | 0 mm | 0 m/s | - | - |
| 1787956105 | 22.22° C | - | 1017.4 hPa | 0 mm | 0 m/s | - | - |
| 1787955504 | 21.67° C | - | 1017.4 hPa | 0 mm | 1.34 m/s, 336° | - | - |
| 1787954906 | 22.22° C | - | 1017.3 hPa | 0 mm | 1.34 m/s, 295° | - | - |
| 1787954293 | 22.78° C | - | 1017.2 hPa | 0 mm | 0 m/s | - | - |
| 1787953695 | 22.78° C | - | 1017 hPa | 0 mm | 0 m/s | - | - |
| 1787953097 | 22.78° C | - | 1016.9 hPa | 0 mm | 0 m/s | - | - |
| 1787952493 | 23.33° C | - | 1016.5 hPa | 0 mm | 0 m/s | - | - |
| 1787951893 | 23.33° C | - | 1016.3 hPa | 0 mm | 0.89 m/s, 269° | - | - |
| 1787951296 | 23.89° C | - | 1016.1 hPa | 0 mm | 0 m/s | - | - |
| 1787950698 | 23.89° C | - | 1016 hPa | 0 mm | 0.45 m/s, 352° | - | - |
| 1787950087 | 24.44° C | - | 1016 hPa | 0 mm | 0 m/s | - | - |
| 1787949490 | 24.44° C | - | 1015.8 hPa | 0 mm | 0 m/s | - | - |
| 1787948889 | 24.44° C | - | 1015.6 hPa | 0 mm | 0 m/s | - | - |
| 1787948291 | 25° C | - | 1015.8 hPa | 0 mm | 0.89 m/s, 215° | - | - |
| 1787947693 | 25° C | - | 1015.7 hPa | 0 mm | 0 m/s | - | - |
| 1787947096 | 25° C | - | 1015.5 hPa | 0 mm | 0 m/s | - | - |
| 1787946498 | 25° C | - | 1015.4 hPa | 0 mm | 0 m/s | - | - |
| 1787945894 | 25.56° C | - | 1015.2 hPa | 0 mm | 0 m/s | - | - |
| 1787945297 | 25.56° C | - | 1015.1 hPa | 0 mm | 0 m/s | - | - |
| 1787944699 | 26.11° C | - | 1015.1 hPa | 0 mm | 0 m/s | - | - |
* Rain latest hour (hover to see other rain measurements)
** Current wind speed in m/s (hover to see current wind gust speed)